This is the latest recevied weather packets stored in our database for station/object N8DMH-13. If no packets are shown the sender has not sent any weather packets the latest 10 day(s).
| Time | Temp. | Humidity | Pressure | Rain* | Wind** | Luminosity | Snow |
|---|---|---|---|---|---|---|---|
| 1777652263 | 5° C | 67% | 1016.7 hPa | 0 mm | - | - | - |
| 1777651963 | 5° C | 67% | 1016.7 hPa | 0 mm | - | - | - |
| 1777651632 | 5° C | 67% | 1016.8 hPa | 0 mm | - | - | - |
| 1777651305 | 5.56° C | 66% | 1016.8 hPa | 0 mm | - | - | - |
| 1777650972 | 5° C | 69% | 1016.8 hPa | 0 mm | - | - | - |
| 1777650672 | 4.44° C | 68% | 1016.8 hPa | 0 mm | - | - | - |
| 1777650342 | 4.44° C | 69% | 1016.8 hPa | 0 mm | - | - | - |
| 1777650043 | 4.44° C | 68% | 1016.8 hPa | 0 mm | - | - | - |
| 1777649742 | 4.44° C | 68% | 1016.9 hPa | 0 mm | - | - | - |
| 1777649412 | 4.44° C | 66% | 1016.8 hPa | 0 mm | - | - | - |
| 1777649112 | 4.44° C | 66% | 1017 hPa | 0 mm | - | - | - |
| 1777648812 | 4.44° C | 67% | 1016.8 hPa | 0 mm | - | - | - |
| 1777648482 | 4.44° C | 68% | 1017 hPa | 0 mm | - | - | - |
| 1777648151 | 4.44° C | 67% | 1016.9 hPa | 0 mm | - | - | - |
| 1777647851 | 4.44° C | 66% | 1016.9 hPa | 0 mm | - | - | - |
| 1777647551 | 4.44° C | 65% | 1016.9 hPa | 0 mm | - | - | - |
| 1777647251 | 4.44° C | 66% | 1016.8 hPa | 0 mm | - | - | - |
| 1777646922 | 4.44° C | 67% | 1016.8 hPa | 0 mm | - | - | - |
| 1777646621 | 4.44° C | 67% | 1016.9 hPa | 0 mm | - | - | - |
| 1777646291 | 4.44° C | 69% | 1016.9 hPa | 0 mm | - | - | - |
| 1777645991 | 4.44° C | 68% | 1016.9 hPa | 0 mm | - | - | - |
| 1777645661 | 4.44° C | 70% | 1016.9 hPa | 0 mm | - | - | - |
| 1777645361 | 3.89° C | 70% | 1017 hPa | 0 mm | - | - | - |
| 1777645031 | 3.33° C | 68% | 1016.9 hPa | 0 mm | - | - | - |
| 1777644730 | 3.89° C | 68% | 1016.9 hPa | 0 mm | - | - | - |
* Rain latest hour (hover to see other rain measurements)
** Current wind speed in m/s (hover to see current wind gust speed)